Regional Weather Roundup
Issued by NWS

Home | Current Version | Previous Version | Graphics & Text | Print | Product List | Glossary On
Versions: 1 2 3 4 5 6 7 8 9 10 11 12 13 14 15 16 17 18 19 20 21 22 23 24 25 26 27 28 29 30 31 32 33 34 35 36 37 38 39 40 41 42 43 44 45 46 47 48 49 50
000
ASUS44 KMEG 280300
RWRTN
TENNESSEE HOURLY STATE WEATHER ROUNDUP
NATIONAL WEATHER SERVICE MEMPHIS TN
1000 PM CDT MON APR 27 2015

TNZ002-004-019-021-049-052-054-088>092-280400-
WEST TENNESSEE

CITY           SKY/WX    TMP DP  RH WIND       PRES   REMARKS
MEMPHIS INTL   MOCLDY    60  38  43 NE10      29.96R
NWS MEMPHIS      N/A     58 N/A N/A MISG        N/A
JACKSON        CLEAR     50  40  68 NE8       29.98R
DYERSBURG      CLEAR     54  34  47 NE8       30.01S
UNION CITY     CLEAR     50  32  50 NE5       30.01R
PARIS          CLEAR     45  39  81 N3        30.01S
LEXINGTON      CLEAR     52  36  54 N3        29.97R
SAVANNAH       CLEAR     46  32  57 CALM      29.97R
$$

TNZ008-025-027-028-033-062-065-066-280400-
NORTH MIDDLE TENNESSEE

CITY           SKY/WX    TMP DP  RH WIND       PRES   REMARKS
NASHVILLE      CLEAR     53  39  59 N8        29.98S
CLARKSVILLE    CLEAR     50  41  71 N7        30.01R
COOKEVILLE     CLEAR     46  39  76 NE3       29.97S
CROSSVILLE     CLEAR     52  34  50 N5        29.99R
$$

TNZ061-075-076-078-094-096-097-280400-
SOUTH MIDDLE TENNESSEE

CITY           SKY/WX    TMP DP  RH WIND       PRES   REMARKS
FAYETTEVILLE     N/A     50  37  62 NE8       29.94F
TULLAHOMA      CLEAR     52  37  58 CALM      29.97S
WINCHESTER     CLEAR     48  41  76 NE7       29.96S
MCMINNVILLE    CLEAR     52  39  62 NE5       29.97S
COLUMBIA       CLEAR     52  32  46 CALM      29.96R
SHELBYVILLE    CLEAR     50  43  76 N3        29.97F
$$

TNZ017-018-042-046-047-280400-
NORTHEAST TENNESSEE

CITY           SKY/WX    TMP DP  RH WIND       PRES   REMARKS
TRI CITIES     PTCLDY    45  35  68 CALM      29.98R
ELIZABETHTON   CLEAR     41  36  81 CALM      29.98S
$$

TNZ012-013-036-069-073-074-280400-
CENTRAL EAST TENNESSEE

CITY           SKY/WX    TMP DP  RH WIND       PRES   REMARKS
KNOXVILLE      PTCLDY    55  36  48 N9        29.95F
OAK RIDGE      CLEAR     52  37  56 CALM      29.98F
GATLINBURG     CLEAR     46  39  76 CALM      29.97R
$$

TNZ083-085-099-280400-
SOUTHEAST TENNESSEE

CITY           SKY/WX    TMP DP  RH WIND       PRES   REMARKS
CHATTANOOGA    PTCLDY    58  40  51 NE5       29.94R
$$

SKY/WX REPORTED AS FAIR MEANS FEW OR NO CLOUDS BELOW
12 THOUSAND FEET.




USA.gov is the U.S. government's official web portal to all federal, state and local government web resources and services.